Voltar ao catálogo

SEDNA-2

AtivoCiênciaSSO
NORAD 63153·PAYLOAD·🇺🇸 United States

Lançado Jan 14, 2025 de Vandenberg Space Force Base

Loading…

Próximas Passagens (próximas 24 horas)

TLE

AtualizadoSource: Space-Track

Época: Sep 14, 2026, 10:26 UTC

1 63153U 25009DQ  26257.43535648  .00005037  00000-0  28927-3 0  9990
2 63153  97.4464 328.8651 0010308 112.3263 247.9061 15.12913489 91616

Acompanhe SEDNA-2 em tempo real com AllMySat

Download on the App Store